Tracking 30923 objects as of 1-Jul-2025
HD Live streaming from Space Station
objects crossing your sky now

CENTISPACE-1 S12

Track CENTISPACE-1 S12 now!
10-day predictions


NORAD ID: 62581
Int'l Code: 2025-007G
Perigee: 639.2 km
Apogee: 658.4 km
Inclination: 55.0 °
Period: 97.6 minutes
Semi major axis: 7019 km
RCS: Unknown
Launch date: January 13, 2025
Source: People's Republic of China (PRC)
Launch site: Yellow Sea Launch Area, China (YSLA)
Your satellite tracking list
Your tracking list is empty




NASA's NSSDC Master Catalog

Two Line Element Set (TLE):
1 62581U 25007G   25181.88431083  .00000303  00000-0  73931-4 0  9991
2 62581  54.9763 158.6704 0013663 335.3332  24.7013 14.76105967 24920
Source of the keplerian elements: AFSPC